Location: Unspecified
(0.0000°N, 0.0000°E)
Time: 17:29:41
(UTC+00:00)

Envisat - Pass Details

Date: 27 September 2022
Orbit: 764 x 765 km, 98.2° (Epoch: 26 September)

Event Time Altitude Azimuth Distance (km) Brightness Sun altitude
Rises 04:34:12 0° 352° (N) 3,212 6.1 -19.2°
Reaches altitude 10° 04:36:45 10° 342° (NNW) 2,290 5.3 -18.6°
Enters shadow 04:40:51 29° 287° (WNW) 1,366 3.7 -17.6°
